Location: Navajo
(48.7922°N, 105.0603°W)
Time: 10:25:58
(UTC+00:00)

KKS-1 - Pass Details

Date: 04 July 2022
Orbit: 634 x 649 km, 98.2° (Epoch: 17 August)

Event Time Altitude Azimuth Distance (km) Brightness Sun altitude
Rises 05:02:14 0° 15° (NNE) 2,978 ? -13.3°
Reaches altitude 10° 05:04:28 10° 18° (NNE) 2,061 ? -13.5°
Maximum altitude 05:08:58 72° 103° (ESE) 683 ? -13.8°
Enters shadow 05:12:19 17° 186° (S) 1,604 ? -14.1°
